Location: El Conde
(10.2895°N, 67.2409°W)
Time: 18:22:11
(UTC+00:00)

YAOGAN 1 - Pass Details

Date: 19 May 2024
Orbit: 611 x 614 km, 97.8° (Epoch: 12 June)

Event Time Altitude Azimuth Distance (km) Brightness Sun altitude
Exits shadow 23:38:47 - 172° (S) 2,753 5.6 -13.3°
Reaches altitude 10° 23:40:41 10° 174° (S) 1,967 4.8 -13.7°
Maximum altitude 23:44:57 73° 259° (WSW) 641 2.7 -14.6°
Drops below altitude 10° 23:49:13 10° 344° (NNW) 1,965 5.7 -15.6°
Sets 23:51:24 0° 346° (NNW) 2,869 6.6 -16.1°
